CEB276 RPLL-VHHH

Flight info

Callsign CEB276
Flight time N/A
Altitude 34000
Route CAB2R CAB A461 NOMAN V533 BETTY BETY3A
Aircraft A333/H-SDE3GHIJ2J3J5M1RVWXY/LB2D1

Departure

Time 2026-05-04 17:31
Airport Ninoy Aquino International Airport (RPLL)

Arrival

Time N/A
Airport Hong Kong International Airport (VHHH)
Time Latitude Longitude Altitude Speed Heading
2026-05-04 16:46 14.50907 121.01414 62 ft 0 kts 330°
2026-05-04 17:16 14.50894 121.01421 62 ft 0 kts 330°
2026-05-04 17:17 14.50881 121.01429 65 ft 2 kts 328°
2026-05-04 17:17 14.50842 121.01461 62 ft 2 kts 300°
2026-05-04 17:18 14.50840 121.01476 62 ft 1 kts 242°
2026-05-04 17:18 14.50841 121.01479 62 ft 0 kts 241°
2026-05-04 17:21 14.50838 121.01473 62 ft 4 kts 241°
2026-05-04 17:22 14.50814 121.01428 62 ft 10 kts 240°
2026-05-04 17:22 14.50772 121.01352 62 ft 12 kts 240°
2026-05-04 17:23 14.50639 121.01267 63 ft 10 kts 237°
2026-05-04 17:23 14.50603 121.01200 62 ft 12 kts 240°
2026-05-04 17:23 14.50504 121.01024 62 ft 15 kts 240°
2026-05-04 17:24 14.50449 121.00924 64 ft 18 kts 240°
2026-05-04 17:24 14.50229 121.00528 62 ft 24 kts 240°
2026-05-04 17:25 14.50141 121.00372 62 ft 25 kts 240°
2026-05-04 17:25 14.49990 121.00101 64 ft 16 kts 240°
2026-05-04 17:26 14.49901 120.99965 64 ft 5 kts 198°
2026-05-04 17:26 14.49886 120.99966 65 ft 0 kts 168°
2026-05-04 17:27 14.49876 120.99969 67 ft 0 kts 160°
2026-05-04 17:28 14.49874 120.99970 66 ft 2 kts 160°
2026-05-04 17:29 14.49810 121.00052 67 ft 8 kts 74°
2026-05-04 17:29 14.49839 121.00104 65 ft 0 kts 59°
2026-05-04 17:30 14.50441 121.01187 64 ft 145 kts 60°
2026-05-04 17:31 14.51675 121.03375 1131 ft 181 kts 59°
2026-05-04 17:31 14.53748 121.07135 2806 ft 242 kts 60°
2026-05-04 17:32 14.55503 121.10255 4224 ft 256 kts 60°
2026-05-04 17:33 14.59646 121.13678 6550 ft 278 kts
2026-05-04 17:33 14.61595 121.13624 7334 ft 283 kts 357°
2026-05-04 17:34 14.67544 121.12849 9783 ft 294 kts 356°
2026-05-04 17:34 14.69600 121.12578 10373 ft 305 kts 356°
2026-05-04 17:35 14.76508 121.11688 11535 ft 352 kts 354°
2026-05-04 17:35 14.81447 121.11050 12839 ft 362 kts 354°
2026-05-04 17:35 14.83924 121.10730 13500 ft 366 kts 354°
2026-05-04 17:36 14.86466 121.10402 14100 ft 371 kts 354°
2026-05-04 17:36 14.89044 121.10071 14686 ft 374 kts 354°
2026-05-04 17:36 14.91641 121.09736 15298 ft 377 kts 354°
2026-05-04 17:36 14.94255 121.09400 15901 ft 381 kts 353°
2026-05-04 17:37 14.96897 121.09060 16517 ft 384 kts 353°
2026-05-04 17:37 14.99556 121.08717 17122 ft 387 kts 353°
2026-05-04 17:37 15.02242 121.08371 17724 ft 391 kts 353°
2026-05-04 17:37 15.04951 121.08022 18325 ft 393 kts 353°
2026-05-04 17:38 15.07676 121.07671 18832 ft 397 kts 353°
2026-05-04 17:38 15.10388 121.07322 19293 ft 400 kts 353°
2026-05-04 17:38 15.13163 121.06964 19781 ft 404 kts 353°
2026-05-04 17:38 15.15959 121.06603 20266 ft 407 kts 353°
2026-05-04 17:39 15.21628 121.05872 21095 ft 417 kts 353°
2026-05-04 17:39 15.24527 121.05498 21554 ft 420 kts 353°
2026-05-04 17:39 15.27426 121.05123 22120 ft 420 kts 353°
2026-05-04 17:40 15.30334 121.04748 22617 ft 423 kts 353°
2026-05-04 17:40 15.33223 121.04374 23065 ft 426 kts 353°
2026-05-04 17:40 15.36173 121.03993 23520 ft 429 kts 352°
2026-05-04 17:40 15.39146 121.03609 23893 ft 432 kts 352°
2026-05-04 17:41 15.42141 121.03222 24287 ft 434 kts 352°
2026-05-04 17:41 15.45141 121.02826 24686 ft 436 kts 351°
2026-05-04 17:41 15.48111 121.02171 25070 ft 438 kts 342°
2026-05-04 17:41 15.50962 121.01044 25456 ft 439 kts 335°
2026-05-04 17:42 15.53733 120.99705 25843 ft 441 kts 333°
2026-05-04 17:42 15.56432 120.98276 26223 ft 442 kts 331°
2026-05-04 17:42 15.59158 120.96780 26608 ft 444 kts 331°
2026-05-04 17:42 15.61893 120.95269 26975 ft 447 kts 331°
2026-05-04 17:43 15.64645 120.93760 27351 ft 449 kts 331°
2026-05-04 17:43 15.67417 120.92256 27736 ft 451 kts 331°
2026-05-04 17:43 15.70210 120.90755 28121 ft 453 kts 331°
2026-05-04 17:43 15.73015 120.89256 28496 ft 455 kts 331°
2026-05-04 17:44 15.75835 120.87754 28854 ft 457 kts 331°
2026-05-04 17:44 15.78635 120.86264 29209 ft 459 kts 331°
2026-05-04 17:44 15.81484 120.84749 29550 ft 461 kts 331°
2026-05-04 17:44 15.84345 120.83226 29903 ft 463 kts 331°
2026-05-04 17:45 15.87219 120.81694 30224 ft 466 kts 331°
2026-05-04 17:45 15.90107 120.80155 30534 ft 467 kts 331°
2026-05-04 17:45 15.93000 120.78612 30850 ft 468 kts 331°
2026-05-04 17:45 15.95900 120.77064 31157 ft 469 kts 331°
2026-05-04 17:46 15.98812 120.75510 31483 ft 471 kts 330°
2026-05-04 17:46 16.01727 120.73953 31797 ft 472 kts 330°
2026-05-04 17:46 16.04609 120.72413 32112 ft 473 kts 330°
2026-05-04 17:46 16.07526 120.70856 32562 ft 470 kts 330°
2026-05-04 17:47 16.10428 120.69305 33057 ft 467 kts 330°
2026-05-04 17:47 16.13302 120.67769 33541 ft 464 kts 330°
2026-05-04 17:47 16.16172 120.66234 33888 ft 463 kts 330°
2026-05-04 17:47 16.19008 120.64717 33955 ft 452 kts 330°
2026-05-04 17:48 16.21764 120.63244 33966 ft 440 kts 330°
2026-05-04 17:48 16.24468 120.61798 33956 ft 435 kts 330°
2026-05-04 17:48 16.29821 120.58929 33961 ft 436 kts 330°
2026-05-04 17:49 16.35214 120.56030 33963 ft 436 kts 330°
2026-05-04 17:49 16.40606 120.53138 33975 ft 436 kts 329°
2026-05-04 17:50 16.46000 120.50244 33950 ft 436 kts 329°
2026-05-04 17:50 16.51396 120.47346 33950 ft 436 kts 329°
2026-05-04 17:51 16.56750 120.44470 33950 ft 436 kts 329°
2026-05-04 17:51 16.62153 120.41564 33948 ft 441 kts 329°
2026-05-04 17:52 16.67712 120.38568 33923 ft 458 kts 329°
2026-05-04 17:52 16.73205 120.35050 33919 ft 469 kts 317°
2026-05-04 17:53 16.77945 120.30319 33918 ft 481 kts 312°
2026-05-04 17:53 16.82591 120.25236 33897 ft 485 kts 311°
2026-05-04 17:54 16.87211 120.20105 33900 ft 485 kts 311°
2026-05-04 17:54 16.91839 120.14992 33884 ft 485 kts 311°
2026-05-04 17:55 16.96452 120.09919 33882 ft 485 kts 311°
2026-05-04 17:55 17.01102 120.04809 33893 ft 486 kts 311°
2026-05-04 17:56 17.05757 119.99691 33886 ft 485 kts 310°
2026-05-04 17:56 17.10397 119.94584 33879 ft 484 kts 310°
2026-05-04 17:57 17.15006 119.89506 33877 ft 484 kts 310°
2026-05-04 17:57 17.19640 119.84395 33877 ft 484 kts 310°
2026-05-04 17:58 17.24275 119.79281 33879 ft 485 kts 310°
2026-05-04 17:58 17.28921 119.74149 33878 ft 486 kts 310°
2026-05-04 17:59 17.33570 119.69011 33874 ft 486 kts 310°
2026-05-04 18:00 17.40503 119.61344 33881 ft 485 kts 310°
2026-05-04 18:00 17.45145 119.56203 33885 ft 485 kts 310°
2026-05-04 18:01 17.49782 119.51064 33869 ft 486 kts 310°
2026-05-04 18:01 17.54394 119.45947 33871 ft 487 kts 310°
2026-05-04 18:02 17.61366 119.38207 33868 ft 487 kts 310°
2026-05-04 18:02 17.66013 119.33043 33874 ft 487 kts 310°
2026-05-04 18:03 17.70623 119.27915 33873 ft 487 kts 310°
2026-05-04 18:03 17.75262 119.22752 33885 ft 486 kts 310°
2026-05-04 18:04 17.79895 119.17590 33884 ft 485 kts 310°
2026-05-04 18:05 17.86829 119.09858 33886 ft 485 kts 310°
2026-05-04 18:05 17.91416 119.04737 33889 ft 485 kts 310°
2026-05-04 18:06 17.98341 118.96999 33897 ft 485 kts 309°
2026-05-04 18:06 18.02959 118.91833 33897 ft 485 kts 309°
2026-05-04 18:07 18.07570 118.86669 33901 ft 485 kts 309°
2026-05-04 18:07 18.12152 118.81534 33908 ft 484 kts 309°
2026-05-04 18:08 18.16750 118.76377 33909 ft 483 kts 309°
2026-05-04 18:08 18.21340 118.71225 33908 ft 482 kts 309°
2026-05-04 18:09 18.30477 118.60955 33908 ft 482 kts 309°
2026-05-04 18:10 18.35059 118.55799 33907 ft 482 kts 309°
2026-05-04 18:10 18.39636 118.50644 33915 ft 482 kts 309°
2026-05-04 18:11 18.44214 118.45484 33918 ft 482 kts 309°
2026-05-04 18:11 18.48760 118.40356 33919 ft 481 kts 309°
2026-05-04 18:12 18.53320 118.35207 33921 ft 480 kts 309°
2026-05-04 18:12 18.57870 118.30066 33923 ft 479 kts 309°
2026-05-04 18:13 18.62410 118.24931 33923 ft 479 kts 309°
2026-05-04 18:14 18.69184 118.17262 33922 ft 479 kts 309°
2026-05-04 18:14 18.73722 118.12119 33927 ft 479 kts 309°
2026-05-04 18:15 18.82791 118.01827 33931 ft 478 kts 309°
2026-05-04 18:16 18.87289 117.96717 33936 ft 478 kts 309°
2026-05-04 18:16 18.91802 117.91585 33934 ft 476 kts 309°
2026-05-04 18:17 18.98561 117.83894 33934 ft 476 kts 309°
2026-05-04 18:18 19.05263 117.76141 33699 ft 476 kts 307°
2026-05-04 18:18 19.07431 117.73554 33143 ft 476 kts 308°
2026-05-04 18:18 19.09616 117.70926 33053 ft 477 kts 308°
2026-05-04 18:18 19.11866 117.68345 33220 ft 479 kts 309°
2026-05-04 18:19 19.16493 117.63259 33737 ft 479 kts 310°
2026-05-04 18:19 19.18794 117.60716 33931 ft 478 kts 309°
2026-05-04 18:19 19.21075 117.58164 33940 ft 477 kts 309°
2026-05-04 18:20 19.25591 117.53034 33938 ft 475 kts 309°
2026-05-04 18:20 19.30041 117.47933 33942 ft 475 kts 308°
2026-05-04 18:21 19.34515 117.42795 33945 ft 475 kts 308°
2026-05-04 18:21 19.38992 117.37653 33948 ft 475 kts 308°
2026-05-04 18:22 19.43467 117.32513 33946 ft 475 kts 308°
2026-05-04 18:22 19.47915 117.27400 33946 ft 475 kts 308°
2026-05-04 18:23 19.52387 117.22254 33944 ft 475 kts 308°
2026-05-04 18:23 19.56861 117.17102 33948 ft 475 kts 309°
2026-05-04 18:24 19.61329 117.11953 33952 ft 474 kts 309°
2026-05-04 18:24 19.65754 117.06849 33948 ft 472 kts 309°
2026-05-04 18:25 19.70200 117.01715 33954 ft 472 kts 309°
2026-05-04 18:25 19.74640 116.96584 33949 ft 472 kts 309°
2026-05-04 18:26 19.79082 116.91444 33950 ft 472 kts 309°
2026-05-04 18:26 19.83492 116.86339 33956 ft 472 kts 309°
2026-05-04 18:27 19.87930 116.81197 33950 ft 472 kts 309°
2026-05-04 18:27 19.92359 116.76060 33956 ft 471 kts 309°
2026-05-04 18:28 19.96788 116.70919 33956 ft 471 kts 309°
2026-05-04 18:28 20.00723 116.65471 33958 ft 466 kts 297°
2026-05-04 18:29 20.03880 116.59472 33960 ft 465 kts 295°
2026-05-04 18:29 20.06880 116.53386 33966 ft 464 kts 294°
2026-05-04 18:30 20.11315 116.44310 33963 ft 462 kts 295°
2026-05-04 18:31 20.14296 116.38245 33954 ft 463 kts 295°
2026-05-04 18:31 20.17283 116.32179 33961 ft 463 kts 295°
2026-05-04 18:32 20.20268 116.26113 33956 ft 463 kts 295°
2026-05-04 18:32 20.23248 116.20051 33973 ft 461 kts 295°
2026-05-04 18:33 20.26195 116.14045 33958 ft 460 kts 295°
2026-05-04 18:33 20.29157 116.08004 33969 ft 460 kts 294°
2026-05-04 18:34 20.32120 116.01954 33972 ft 460 kts 294°
2026-05-04 18:34 20.35080 115.95903 33957 ft 460 kts 294°
2026-05-04 18:35 20.38014 115.89898 33967 ft 459 kts 294°
2026-05-04 18:35 20.40958 115.83867 33972 ft 458 kts 295°
2026-05-04 18:36 20.43895 115.77844 33966 ft 457 kts 294°
2026-05-04 18:36 20.46797 115.71888 33967 ft 457 kts 294°
2026-05-04 18:37 20.49703 115.65913 33968 ft 457 kts 294°
2026-05-04 18:37 20.52628 115.59896 33968 ft 456 kts 294°
2026-05-04 18:38 20.55878 115.54077 33966 ft 461 kts 305°
2026-05-04 18:38 20.60250 115.49044 33774 ft 462 kts 310°
2026-05-04 18:38 20.62539 115.46618 34742 ft 465 kts 314°
2026-05-04 18:39 20.64841 115.44227 33089 ft 474 kts 312°
2026-05-04 18:39 20.67245 115.41739 32670 ft 485 kts 312°
2026-05-04 18:39 20.69652 115.39250 32005 ft 478 kts 312°
2026-05-04 18:39 20.72027 115.36789 31325 ft 476 kts 312°
2026-05-04 18:40 20.74395 115.34323 30749 ft 473 kts 311°
2026-05-04 18:40 20.76730 115.31885 30331 ft 466 kts 311°
2026-05-04 18:40 20.79028 115.29478 29839 ft 461 kts 311°
2026-05-04 18:40 20.81306 115.27089 29341 ft 455 kts 311°
2026-05-04 18:41 20.83545 115.24738 28890 ft 448 kts 311°
2026-05-04 18:41 20.85726 115.22446 28440 ft 442 kts 311°
2026-05-04 18:41 20.87902 115.20158 27991 ft 437 kts 311°
2026-05-04 18:41 20.90056 115.17891 27545 ft 431 kts 311°
2026-05-04 18:42 20.92180 115.15656 27110 ft 426 kts 311°
2026-05-04 18:42 20.94282 115.13442 26645 ft 422 kts 311°
2026-05-04 18:42 20.96359 115.11253 26197 ft 418 kts 310°
2026-05-04 18:42 20.98422 115.09079 25759 ft 414 kts 310°
2026-05-04 18:43 21.00461 115.06929 25321 ft 410 kts 310°
2026-05-04 18:43 21.02483 115.04796 24894 ft 406 kts 310°
2026-05-04 18:43 21.04461 115.02707 24454 ft 404 kts 310°
2026-05-04 18:43 21.06452 115.00605 24025 ft 401 kts 310°
2026-05-04 18:44 21.08428 114.98517 23602 ft 398 kts 310°
2026-05-04 18:44 21.09731 114.97142 23281 ft 396 kts 310°
2026-05-04 18:44 21.12336 114.94390 22697 ft 390 kts 310°
2026-05-04 18:44 21.14254 114.92364 22281 ft 385 kts 310°
2026-05-04 18:45 21.16150 114.90360 21883 ft 381 kts 310°
2026-05-04 18:45 21.18002 114.88401 21475 ft 377 kts 310°
2026-05-04 18:45 21.19857 114.86438 21072 ft 373 kts 310°
2026-05-04 18:45 21.21698 114.84491 20667 ft 370 kts 310°
2026-05-04 18:46 21.23517 114.82564 20269 ft 366 kts 310°
2026-05-04 18:46 21.25320 114.80655 19879 ft 363 kts 310°
2026-05-04 18:46 21.27107 114.78761 19493 ft 360 kts 310°
2026-05-04 18:46 21.28883 114.76879 19107 ft 357 kts 310°
2026-05-04 18:47 21.30643 114.75014 18727 ft 355 kts 310°
2026-05-04 18:47 21.32369 114.73183 18351 ft 352 kts 310°
2026-05-04 18:47 21.34102 114.71344 17927 ft 350 kts 310°
2026-05-04 18:47 21.35823 114.69518 17534 ft 346 kts 310°
2026-05-04 18:48 21.37527 114.67709 17156 ft 342 kts 311°
2026-05-04 18:48 21.39211 114.65920 16780 ft 339 kts 311°
2026-05-04 18:48 21.40884 114.64143 16402 ft 338 kts 311°
2026-05-04 18:48 21.42553 114.62369 16018 ft 337 kts 311°
2026-05-04 18:49 21.44217 114.60599 15647 ft 336 kts 311°
2026-05-04 18:49 21.45856 114.58856 15270 ft 335 kts 311°
2026-05-04 18:49 21.47531 114.57118 14893 ft 336 kts 315°
2026-05-04 18:49 21.49472 114.55711 14517 ft 341 kts 330°
2026-05-04 18:50 21.50958 114.55057 14259 ft 343 kts 336°
2026-05-04 18:50 21.53929 114.54010 14005 ft 333 kts 338°
2026-05-04 18:50 21.56120 114.53270 13672 ft 329 kts 338°
2026-05-04 18:50 21.58302 114.52525 13244 ft 328 kts 338°
2026-05-04 18:51 21.60475 114.51671 12975 ft 339 kts 330°
2026-05-04 18:51 21.62408 114.50240 12634 ft 336 kts 313°
2026-05-04 18:51 21.64022 114.48489 12363 ft 333 kts 309°
2026-05-04 18:51 21.65587 114.46670 12141 ft 331 kts 309°
2026-05-04 18:52 21.67141 114.44853 11881 ft 330 kts 309°
2026-05-04 18:52 21.68692 114.43043 11620 ft 328 kts 309°
2026-05-04 18:52 21.70239 114.41246 11365 ft 327 kts 309°
2026-05-04 18:52 21.71780 114.39459 11134 ft 324 kts 309°
2026-05-04 18:53 21.73312 114.37685 10866 ft 323 kts 309°
2026-05-04 18:53 21.74824 114.35934 10685 ft 314 kts 309°
2026-05-04 18:53 21.76288 114.34243 10480 ft 304 kts 309°
2026-05-04 18:53 21.77685 114.32626 10250 ft 296 kts 309°
2026-05-04 18:54 21.79069 114.31023 10027 ft 288 kts 309°
2026-05-04 18:54 21.80421 114.29455 9726 ft 284 kts 309°
2026-05-04 18:54 21.81758 114.27904 9475 ft 282 kts 309°
2026-05-04 18:54 21.83091 114.26357 9253 ft 282 kts 309°
2026-05-04 18:55 21.84424 114.24810 9042 ft 281 kts 309°
2026-05-04 18:55 21.87065 114.21747 8613 ft 277 kts 309°
2026-05-04 18:55 21.88372 114.20229 8399 ft 276 kts 309°
2026-05-04 18:56 21.89517 114.18628 8186 ft 272 kts 300°
2026-05-04 18:56 21.90478 114.16875 7959 ft 272 kts 297°
2026-05-04 18:56 21.91393 114.15101 7766 ft 270 kts 296°
2026-05-04 18:56 21.92301 114.13327 7550 ft 270 kts 296°
2026-05-04 18:57 21.93208 114.11562 7349 ft 269 kts 297°
2026-05-04 18:57 21.94114 114.09802 7143 ft 268 kts 296°
2026-05-04 18:57 21.95014 114.08057 6931 ft 266 kts 296°
2026-05-04 18:57 21.95899 114.06342 6736 ft 266 kts 297°
2026-05-04 18:58 21.96814 114.04566 6525 ft 268 kts 297°
2026-05-04 18:58 21.97709 114.02833 6308 ft 268 kts 297°
2026-05-04 18:58 21.98614 114.01079 6105 ft 268 kts 297°
2026-05-04 18:58 21.99521 113.99321 5889 ft 269 kts 297°
2026-05-04 18:59 22.00430 113.97559 5683 ft 269 kts 297°
2026-05-04 18:59 22.01337 113.95799 5474 ft 269 kts 297°
2026-05-04 18:59 22.02246 113.94035 5261 ft 269 kts 297°
2026-05-04 18:59 22.03157 113.92268 5056 ft 270 kts 298°
2026-05-04 19:00 22.04069 113.90496 4837 ft 270 kts 297°
2026-05-04 19:00 22.04983 113.88723 4624 ft 271 kts 297°
2026-05-04 19:00 22.05886 113.86966 4409 ft 272 kts 298°
2026-05-04 19:00 22.06806 113.85179 4197 ft 273 kts 298°
2026-05-04 19:01 22.07727 113.83389 3988 ft 274 kts 298°
2026-05-04 19:01 22.08652 113.81590 3780 ft 275 kts 299°
2026-05-04 19:01 22.09566 113.79820 3621 ft 266 kts 300°
2026-05-04 19:01 22.10685 113.78278 3427 ft 259 kts 322°
2026-05-04 19:02 22.12263 113.77449 3223 ft 251 kts 349°
2026-05-04 19:02 22.13967 113.77182 3018 ft 245 kts 356°
2026-05-04 19:02 22.15627 113.77029 2825 ft 240 kts 358°
2026-05-04 19:02 22.17270 113.76886 2653 ft 234 kts 358°
2026-05-04 19:03 22.18872 113.76740 2453 ft 229 kts 358°
2026-05-04 19:03 22.20451 113.76592 2276 ft 226 kts 358°
2026-05-04 19:03 22.22012 113.76443 2092 ft 223 kts 358°
2026-05-04 19:03 22.23548 113.76293 1922 ft 220 kts 358°
2026-05-04 19:04 22.25064 113.76163 1729 ft 217 kts
2026-05-04 19:04 22.26478 113.76567 1617 ft 209 kts 40°
2026-05-04 19:04 22.27304 113.77807 1610 ft 206 kts 68°
2026-05-04 19:04 22.27787 113.79248 1606 ft 208 kts 75°
2026-05-04 19:05 22.28157 113.80757 1593 ft 208 kts 72°
2026-05-04 19:05 22.28657 113.82209 1525 ft 202 kts 72°
2026-05-04 19:05 22.29106 113.83616 1355 ft 195 kts 73°
2026-05-04 19:05 22.29537 113.84989 990 ft 189 kts 72°
2026-05-04 19:06 22.29951 113.86270 743 ft 171 kts 70°
2026-05-04 19:06 22.30322 113.87420 544 ft 154 kts 70°
2026-05-04 19:06 22.30659 113.88467 355 ft 142 kts 70°
2026-05-04 19:06 22.30969 113.89430 166 ft 132 kts 71°
2026-05-04 19:07 22.31171 113.90042 55 ft 131 kts 70°